User: anonymous   Login
Location: Oshawa
(43.9000°N, 78.8670°W)
Time: 03:08:19
(UTC-04:00)
Language:

Explorer 11/Cluster Stage 4 - Orbit

View from above orbital plane
View from above orbital plane
View from above satellite
View from above satellite

Ground track
Ground track

The orbit data is extracted from the following two-line orbital elements,

1   107U 61013A   16267.49299839 +.00001362 +00000-0 +16300-3 0  9999
2   107 028.7913 314.4942 0550331 238.8988 115.6459 14.07999298773893
Epoch (UTC): 23 September 2016 11:49:55
Eccentricity: 0.0550331
inclination: 28.7913°
perigee height: 467 km
apogee height: 1265 km
right ascension of ascending node: 314.4942°
argument of perigee: 238.8988°
revolutions per day: 14.07999298
mean anomaly at epoch: 115.6459°
orbit number at epoch: 77389

The dashed part of the orbit path shows where the satellite is in the earth's shadow,  

DLR